Regional Weather Roundup
Issued by NWS

Home | Current Version | Previous Version | Text Only | Print | Product List | Glossary On
Versions: 1 2 3 4 5 6 7 8 9 10 11 12 13 14 15 16 17 18 19 20 21 22 23 24 25 26 27 28 29 30 31 32 33 34 35 36 37 38 39 40 41 42 43 44 45 46 47 48 49 50
000
ASUS43 KLOT 101603
RWRIL

ILLINOIS REGIONAL WEATHER ROUNDUP
NATIONAL WEATHER SERVICE CHICAGO/ROMEOVILLE IL
1000 AM CST SAT DEC 10 2016

NOTE: "FAIR" INDICATES FEW OR NO CLOUDS BELOW 12,000 FEET WITH NO
SIGNIFICANT WEATHER AND/OR OBSTRUCTIONS TO VISIBILITY.

* THESE STATIONS ARE NOT UNDER NWS QUALITY CONTROL. THEY ALSO MAY NOT
  REPORT WEATHER SUCH AS PRECIPITATION OR FOG.

ILZ001-002-007-009-015-016-024-101700-
NORTHWEST ILLINOIS

CITY           SKY/WX    TMP DP  RH WIND       PRES   REMARKS
MOLINE         CLOUDY    24  13  62 SW5       30.53S WCI  18
STERLING*      CLOUDY    22  16  78 W6        30.54S WCI  14
SAVANNA*       CLOUDY    22  14  73 CALM      30.52S
$$

ILZ003-004-008-010-011-017-018-101700-
NORTH CENTRAL ILLINOIS

CITY           SKY/WX    TMP DP  RH WIND       PRES   REMARKS
ROCKFORD       CLOUDY    21  13  71 W7        30.53F WCI  12
FREEPORT*      CLOUDY    19  14  81 W6        30.52F WCI  11
ROCHELLE*      CLOUDY    20  16  82 SW7       30.52F WCI  11
$$

ILZ005-006-012>014-019>023-101700-
NORTHEAST ILLINOIS

CITY           SKY/WX    TMP DP  RH WIND       PRES   REMARKS
CHICAGO-OHARE  PTSUNNY   22  14  71 W7        30.51F WCI  13
CHICAGO-MIDWAY PTSUNNY   22  12  65 W7        30.53S WCI  13
AURORA         CLOUDY    21  15  78 W8        30.53S WCI  11
LANSING*       PTSUNNY   22  16  76 W8        30.54S WCI  13
WAUKEGAN       MOSUNNY   20  13  74 W8        30.50S WCI  10
DUPAGE AIRPORT SUNNY     20  13  74 W10       30.51F WCI   9
KANKAKEE*      CLOUDY    23  16  73 W3        30.56S
WHEELING       SUNNY     21  12  68 W8        30.53S WCI  11
MORRIS*        CLOUDY    22  15  74 CALM      30.54S
NORTHERLY ISL    N/A     22  13  68 SW8         N/A  WCI  13
$$

LMZ740>746-101700-
SOUTHERN LAKE MICHIGAN

STATION/POSITION SKY/WX   TEMP    WIND        PRES    VSBY  WAVE
                          AIR SEA DIR/SP/G                  HT/PER
                          (F)     (DEG/KT/KT) (MB)    (MI)  (FT/S)
BURNHAM HARBOR             22     230/  6/ 11   N/A
CALUMET HARBOR             22     230/  5/ 10 1033.1R
BURNS HARBOR               23     260/ 11/ 16 1033.9S
$$

ILZ025>027-034>036-040-047-049-050-058-095>099-101700-
WEST-CENTRAL ILLINOIS

CITY           SKY/WX    TMP DP  RH WIND       PRES   REMARKS
QUINCY         CLOUDY    26   9  48 S10       30.51F WCI  16
GALESBURG*     CLOUDY    24  16  72 S5        30.52F WCI  18
MACOMB*        CLOUDY    26  16  67 S7        30.54F WCI  18
JACKSONVILLE*  CLOUDY    26  13  60 SE8       30.54F WCI  17
PITTSFIELD*    CLOUDY    27  17  65 SE10      30.53F WCI  17
$$

ILZ028>032-037-038-041>044-048-051>054-059>061-101700-
CENTRAL ILLINOIS

CITY           SKY/WX    TMP DP  RH WIND       PRES   REMARKS
PONTIAC        CLOUDY    24  15  68 SW5       30.56S WCI  19
BLOOMINGTON    CLOUDY    22  15  75 SW6       30.54S WCI  14
DECATUR        CLOUDY    25  17  72 SW5       30.57S WCI  19
PEORIA         CLOUDY    24  14  65 S5        30.54F WCI  18
LACON*         CLOUDY    24  14  66 SW5       30.54F WCI  18
LINCOLN*       CLOUDY    25  16  69 CALM      30.56F
SPRINGFIELD    CLOUDY    26  15  63 SE5       30.56F WCI  20
TAYLORVILLE    CLOUDY    25  16  68 CALM      30.57F
$$

ILZ033-039-045-046-055>057-062-063-101700-
EAST-CENTRAL ILLINOIS

CITY           SKY/WX    TMP DP  RH WIND       PRES   REMARKS
CHAMPAIGN      CLOUDY    24  14  65 W7        30.56F WCI  16
RANTOUL*       CLOUDY    26  17  69 W5        30.56R WCI  20
MATTOON        CLOUDY    25  15  66 W5        30.57R WCI  19
PARIS*         CLOUDY    25  18  76 SW7       30.59F WCI  17
$$

ILZ079-100>102-101700-
SOUTHWEST ILLINOIS

CITY           SKY/WX    TMP DP  RH WIND       PRES   REMARKS
ALTON          CLOUDY    27  16  63 SE7       30.58R WCI  19
BELLEVILLE     CLOUDY    30  18  60 S5        30.57S WCI  25
CAHOKIA*       CLOUDY    31  17  56 SE7       30.57F WCI  24
SPARTA*        MOSUNNY   28  19  69 S3        30.59S
$$

ILZ064>066-069>071-074>076-080>082-084>086-088>090-092>094-101700-
SOUTH-CENTRAL ILLINOIS

CITY           SKY/WX    TMP DP  RH WIND       PRES   REMARKS
CARBONDALE     MOSUNNY   30  20  66 S5        30.60R WCI  25
CAIRO*         SUNNY     31  20  62 S5        30.61S WCI  27
EFFINGHAM*     CLOUDY    27  20  75 SE5       30.61R WCI  22
MARION         PTSUNNY   30  19  64 S5        30.61S WCI  25
CENTRALIA*     MOSUNNY   30  20  64 S6        30.58S WCI  24
SALEM*         CLOUDY    29  18  63 CALM      30.60R
METROPOLIS*    CLOUDY    32  23  70 CALM      30.62S
$$

ILZ067-068-072-073-078-083-087-091-101700-
SOUTHEAST ILLINOIS

CITY           SKY/WX    TMP DP  RH WIND       PRES   REMARKS
LAWRENCEVILLE  CLOUDY    26  17  68 SW3       30.61S
FLORA*         CLOUDY    29  19  66 S3        30.61S
FAIRFIELD*     CLOUDY    28  19  71 CALM      30.61R
HARRISBURG*    SUNNY     29  20  68 SW3       30.62S
ROBINSON*      CLOUDY    25  17  71 SW5       30.62F WCI  19
CARMI*         CLOUDY    28  20  71 CALM      30.62R
$$

ABBREVIATIONS USED IN REMARKS
   TC - TEMPERATURE IN CELSIUS
  WCI - WIND CHILL INDEX
   HX - HEAT INDEX
  VSB - VISIBILITY
$$





USA.gov is the U.S. government's official web portal to all federal, state and local government web resources and services.